[[{"header":{"parameterUnit":"m.s-1","parameterCategory":2,"la1":30.2991,"la2":30.254,"lo1":-89.0895,"lo2":-89.0444,"dy":0.0017,"dx":0.0017,"nx":28,"ny":28,"refTime":"2026-02-06T09:00:00:Z","depth":"0","parameterNumber":2,"parameterNumberName":"U-component_of_CURRENTS"},"data":[0,0,0,0,0,0,0,0,0,0,0,0,0,0,0,0,0,0,0,0,0,0,0,0,0,0,0,0,0,0,0,0,0,0,0,0,0,0,0,0,0,0,0,0,0,0,0,0,0,0,0,0,0,0,0,0,0,0,-0.2094,-0.2096,0,-0.2295,-0.2297,-0.2299,-0.2218,-0.2213,-0.2209,-0.2205,-0.2306,-0.2312,-0.2319,0,0,0,0,0,0,0,0,0,0,0,0,0,-0.1815,-0.1819,-0.2094,-0.2096,-0.2099,-0.2294,-0.2297,-0.2299,-0.2219,-0.2213,-0.2208,-0.2203,-0.2303,-0.2311,-0.232,0,0,0,0,0,0,0,0,0,0,0,0,0,-0.1965,-0.182,-0.2093,-0.2084,-0.2085,-0.2294,-0.2297,-0.23,-0.222,-0.2213,-0.2206,-0.22,-0.2301,-0.2311,-0.2321,-0.252,0,0,-0.2352,-0.2357,0,0,0,0,0,0,0,0,-0.1957,-0.1975,-0.2083,-0.2085,-0.2087,-0.2226,-0.2236,-0.237,-0.2222,-0.2166,-0.2204,-0.2197,-0.2277,-0.2288,-0.2339,-0.2525,-0.2529,-0.2353,-0.236,-0.2364,-0.2367,0,0,0,0,0,0,0,-0.1946,-0.1967,-0.2171,-0.2086,-0.2089,-0.213,-0.2142,-0.2262,-0.2253,-0.2171,-0.2166,-0.2194,-0.2275,-0.233,-0.2341,-0.2531,-0.2353,-0.2362,-0.2369,-0.2373,-0.2589,-0.2588,0,0,0,0,0,0,-0.1926,-0.1958,-0.2164,-0.2177,-0.2007,-0.214,-0.2153,-0.2187,-0.2254,-0.2259,-0.22,-0.219,-0.2315,-0.2329,-0.2344,-0.2355,-0.2364,-0.2374,-0.238,-0.2589,-0.2588,-0.2588,0,0,0,0,0,0,-0.1919,-0.1943,-0.2156,-0.2072,-0.2102,-0.2151,-0.219,-0.2194,-0.2231,-0.2278,-0.2279,-0.2228,-0.231,-0.2329,-0.242,-0.2366,-0.2378,-0.2388,-0.259,-0.2589,-0.2588,-0.2525,0,0,0,0,0,0,-0.191,-0.1939,-0.1973,-0.2072,-0.2107,-0.23,-0.2197,-0.2203,-0.2261,-0.2249,-0.2305,-0.2307,-0.2307,-0.2404,-0.243,-0.238,-0.2396,-0.259,-0.2589,-0.2588,-0.2527,-0.2522,-0.2517,0,0,0,0,0,-0.19,-0.2027,-0.1974,-0.2,-0.2146,-0.2306,-0.233,-0.2338,-0.2268,-0.2334,-0.2322,-0.2304,-0.2411,-0.2417,-0.2446,-0.2397,-0.2591,-0.2589,-0.2588,-0.253,-0.2523,-0.2517,0,0,0,0,0,0,-0.1951,-0.2033,-0.1977,-0.2121,-0.2191,-0.2292,-0.2383,-0.2361,-0.2414,-0.2395,-0.2373,-0.2382,-0.2407,-0.2452,-0.2455,-0.245,-0.2472,-0.2477,-0.2416,-0.2411,-0.2406,-0.2361,-0.2404,0,0,0,0,0,-0.1968,-0.2062,-0.2123,-0.2236,-0.2275,-0.2314,-0.2379,-0.2388,-0.2445,-0.246,-0.2476,-0.247,-0.2443,-0.2466,-0.2495,-0.2578,-0.2561,-0.2541,-0.2535,-0.2531,-0.2511,-0.2468,-0.2457,-0.2584,-0.2584,-0.2584,0,0,-0.2026,-0.2079,-0.2134,-0.225,-0.2302,-0.235,-0.2338,-0.2474,-0.2452,-0.2474,-0.2486,-0.249,-0.2462,-0.2477,-0.2491,-0.2504,-0.2486,-0.253,-0.2525,-0.2508,-0.2466,-0.2453,-0.2442,-0.2584,-0.2584,-0.2584,0,0,-0.2188,-0.2222,-0.2329,-0.2366,-0.2455,-0.2463,-0.2489,-0.2582,-0.2558,-0.2611,-0.2534,-0.2513,-0.2575,-0.2493,-0.2453,-0.2467,-0.2457,-0.2472,-0.2425,-0.2383,-0.2372,-0.2361,-0.2317,-0.2304,-0.2473,-0.2472,-0.2472,0,-0.2256,-0.2321,-0.2396,-0.2461,-0.2454,-0.2484,-0.252,-0.2539,-0.2628,-0.2592,-0.26,-0.2543,-0.2538,-0.2428,-0.2392,-0.2444,-0.2441,-0.2445,-0.2373,-0.2363,-0.2353,-0.2311,-0.2297,-0.2469,-0.247,-0.247,-0.247,0,-0.2445,-0.2448,-0.253,-0.2539,-0.2573,-0.2649,-0.2621,-0.2645,-0.2597,-0.2572,-0.2515,-0.2517,-0.2457,-0.243,-0.241,-0.2314,-0.2339,-0.2366,-0.2382,-0.2336,-0.2295,-0.2281,-0.2465,-0.2466,-0.2467,-0.2468,0,0,-0.2677,-0.2657,-0.266,-0.2582,-0.2589,-0.2637,-0.2589,-0.2543,-0.2479,-0.2511,-0.2416,-0.2338,-0.2346,-0.2302,-0.2282,-0.2239,-0.2153,-0.228,-0.2279,-0.2224,-0.2071,-0.1974,-0.195,-0.2187,-0.2185,-0.2183,-0.2068,0,-0.2757,-0.2802,-0.2772,-0.2722,-0.2696,-0.2628,-0.2565,-0.2522,-0.2472,-0.2425,-0.2348,-0.2295,-0.2288,-0.227,-0.2216,-0.218,-0.2116,-0.2181,-0.2135,-0.2133,-0.2041,-0.1929,-0.1865,-0.1747,-0.2054,-0.2052,-0.205,0,-0.2898,-0.2862,-0.2841,-0.2669,-0.2662,-0.2639,-0.2491,-0.2456,-0.2365,-0.2334,-0.2267,-0.2248,-0.215,-0.2182,-0.2059,-0.2117,-0.2074,-0.2048,-0.2044,-0.1961,-0.2008,-0.1846,-0.171,-0.1657,-0.2029,-0.203,-0.2032,0,-0.2939,-0.288,-0.282,-0.278,-0.2654,-0.2597,-0.2528,-0.2431,-0.2365,-0.2294,-0.2259,-0.2174,-0.2126,-0.2072,-0.1994,-0.2043,-0.1878,-0.1941,-0.1797,-0.1791,-0.1723,-0.1714,-0.1513,-0.1829,-0.1829,-0.1829,-0.183,0,-0.2986,-0.292,-0.283,-0.2786,-0.2677,-0.2608,-0.2505,-0.2436,-0.235,-0.2271,-0.223,-0.2162,-0.2102,-0.2007,-0.1967,-0.181,-0.1844,-0.1739,-0.1732,-0.1699,-0.169,-0.1634,-0.1658,-0.1825,-0.1826,-0.1827,-0.1827,0,-0.3017,-0.2973,-0.2867,-0.2733,-0.269,-0.2616,-0.2475,-0.2408,-0.2348,-0.2249,-0.2229,-0.2129,-0.2002,-0.1912,-0.1801,-0.174,-0.1576,-0.1571,-0.1524,-0.1512,-0.1337,-0.1362,-0.118,-0.1133,-0.1397,-0.1394,-0.1391,0,-0.304,-0.3001,-0.2842,-0.2774,-0.2704,-0.2592,-0.251,-0.2411,-0.2341,-0.222,-0.217,-0.2031,-0.1911,-0.1687,-0.155,-0.1402,-0.141,-0.1258,-0.1306,-0.1255,-0.128,-0.1331,-0.1312,-0.1204,-0.1199,-0.1196,-0.1193,0,-0.3022,-0.2977,-0.2875,-0.272,-0.2621,-0.2511,-0.2397,-0.2359,-0.2254,-0.2183,-0.2071,-0.1979,-0.1729,-0.1514,-0.1287,-0.121,-0.1206,-0.1181,-0.114,-0.1085,-0.1115,-0.1094,-0.1367,-0.1163,-0.1166,-0.1168,-0.117,-0.1171,-0.2997,-0.2893,-0.2751,-0.2595,-0.2505,-0.2404,-0.2296,-0.2238,-0.2131,-0.198,-0.197,-0.1761,-0.1516,-0.118,-0.1072,-0.0837,-0.0947,-0.0814,-0.0841,-0.0892,-0.0842,-0.1023,-0.0808,-0.0809,-0.0809,-0.081,-0.0811,0,-0.2851,-0.2727,-0.2616,-0.2399,-0.2276,-0.2267,-0.2169,-0.207,-0.1951,-0.1837,-0.1713,-0.1419,-0.1154,-0.0927,-0.0656,-0.0544,-0.056,-0.0506,-0.0582,-0.0575,-0.0725,-0.071,-0.0448,-0.0448,-0.0448,-0.0448,-0.0448,-0.0448,-0.2756,-0.2541,-0.2443,-0.2175,-0.208,-0.1861,-0.1803,-0.1764,-0.1657,-0.1454,-0.1247,-0.1115,-0.0897,-0.0662,-0.042,-0.0367,-0.0349,-0.032,-0.0335,-0.047,-0.0503,-0.0535,-0.0521,-0.0224,-0.0223,-0.0176,-0.0176,-0.0175]},{"header":{"parameterUnit":"m.s-1","parameterCategory":2,"la1":30.2991,"la2":30.254,"lo1":-89.0895,"lo2":-89.0444,"dy":0.0017,"dx":0.0017,"nx":28,"ny":28,"refTime":"2026-02-06T09:00:00:Z","depth":"0","parameterNumber":3,"parameterNumberName":"V-component_of_CURRENTS"},"data":[0,0,0,0,0,0,0,0,0,0,0,0,0,0,0,0,0,0,0,0,0,0,0,0,0,0,0,0,0,0,0,0,0,0,0,0,0,0,0,0,0,0,0,0,0,0,0,0,0,0,0,0,0,0,0,0,0,0,-0.0771,-0.0771,0,-0.0734,-0.0733,-0.0732,-0.0692,-0.0692,-0.0692,-0.0692,-0.0464,-0.0459,-0.0453,0,0,0,0,0,0,0,0,0,0,0,0,0,-0.0723,-0.0724,-0.0771,-0.0771,-0.0771,-0.0734,-0.0733,-0.0732,-0.0692,-0.0692,-0.0692,-0.0692,-0.0466,-0.0459,-0.0452,0,0,0,0,0,0,0,0,0,0,0,0,0,-0.0715,-0.0724,-0.0771,-0.0751,-0.0749,-0.0735,-0.0733,-0.0732,-0.0692,-0.0692,-0.0692,-0.0692,-0.0469,-0.046,-0.0451,-0.0396,0,0,-0.0423,-0.042,0,0,0,0,0,0,0,0,-0.0716,-0.0716,-0.0754,-0.0752,-0.0751,-0.0723,-0.0634,-0.0612,-0.0692,-0.0707,-0.0692,-0.0692,-0.0537,-0.0523,-0.051,-0.0386,-0.0376,-0.0423,-0.0417,-0.0413,-0.0411,0,0,0,0,0,0,0,-0.0716,-0.0717,-0.075,-0.0754,-0.0752,-0.0716,-0.0715,-0.0629,-0.0614,-0.0706,-0.0704,-0.071,-0.0534,-0.0519,-0.0504,-0.0372,-0.0423,-0.0415,-0.0409,-0.0406,-0.0098,-0.0095,0,0,0,0,0,0,-0.0738,-0.0718,-0.0751,-0.075,-0.074,-0.0718,-0.0716,-0.0727,-0.0619,-0.0607,-0.071,-0.0708,-0.0534,-0.0514,-0.0495,-0.0384,-0.0413,-0.0405,-0.04,-0.01,-0.0097,-0.0094,0,0,0,0,0,0,-0.0737,-0.0742,-0.0753,-0.0737,-0.0737,-0.072,-0.0731,-0.0726,-0.0711,-0.0626,-0.0608,-0.0701,-0.0533,-0.0508,-0.0394,-0.0376,-0.0401,-0.0393,-0.0104,-0.0099,-0.0095,-0.0185,0,0,0,0,0,0,-0.0736,-0.0741,-0.0753,-0.0739,-0.0739,-0.0732,-0.0732,-0.0726,-0.0718,-0.0715,-0.0612,-0.0592,-0.0531,-0.0408,-0.0385,-0.0364,-0.0386,-0.0107,-0.0102,-0.0097,-0.0185,-0.0184,-0.0183,0,0,0,0,0,-0.0734,-0.0752,-0.0754,-0.0758,-0.0757,-0.0732,-0.0726,-0.0709,-0.0718,-0.0698,-0.0622,-0.0595,-0.0359,-0.0398,-0.0372,-0.0348,-0.011,-0.0103,-0.0097,-0.0186,-0.0184,-0.0183,0,0,0,0,0,0,-0.0737,-0.075,-0.0751,-0.0772,-0.0749,-0.0727,-0.0722,-0.0713,-0.0644,-0.0638,-0.056,-0.0532,-0.0426,-0.036,-0.0407,-0.0236,-0.0228,-0.0217,-0.0305,-0.0302,-0.0301,-0.0356,-0.0378,0,0,0,0,0,-0.0747,-0.0764,-0.0753,-0.0768,-0.0761,-0.0743,-0.0734,-0.0719,-0.0667,-0.064,-0.0557,-0.0464,-0.0379,-0.0324,-0.0229,-0.0137,-0.0121,-0.0098,-0.0097,-0.0097,-0.0118,-0.0066,-0.0065,-0.0073,-0.0074,-0.0074,0,0,-0.0758,-0.0764,-0.0777,-0.077,-0.0757,-0.0722,-0.0735,-0.072,-0.0683,-0.062,-0.0523,-0.0455,-0.0351,-0.025,-0.0197,-0.0195,-0.0086,-0.0089,-0.0091,-0.0112,-0.006,-0.006,-0.006,-0.0069,-0.007,-0.0071,0,0,-0.076,-0.0787,-0.0783,-0.0758,-0.0739,-0.0721,-0.0718,-0.0675,-0.0651,-0.0552,-0.0509,-0.0441,-0.0271,-0.0227,-0.0179,-0.011,-0.0084,-0.0058,-0.0099,-0.0049,-0.005,-0.0051,-0.0054,-0.0054,-0.0057,-0.0058,-0.0058,0,-0.077,-0.0773,-0.0773,-0.074,-0.0738,-0.0719,-0.0698,-0.0655,-0.0571,-0.0558,-0.0514,-0.0344,-0.0268,-0.0202,-0.018,-0.0117,-0.0094,-0.0127,-0.0056,-0.0056,-0.0055,-0.0058,-0.0058,-0.0061,-0.0061,-0.006,-0.006,0,-0.0744,-0.0746,-0.0742,-0.0703,-0.0681,-0.0673,-0.0624,-0.0584,-0.055,-0.0512,-0.0432,-0.0334,-0.0252,-0.0207,-0.0171,-0.013,-0.012,-0.0072,-0.0085,-0.0062,-0.0064,-0.0062,-0.0066,-0.0065,-0.0064,-0.0063,0,0,-0.08,-0.0742,-0.0742,-0.0731,-0.0681,-0.0666,-0.0608,-0.0579,-0.0563,-0.0461,-0.0432,-0.032,-0.031,-0.0257,-0.0213,-0.0173,-0.0163,-0.0128,-0.0124,-0.0178,-0.0087,-0.0129,-0.0131,-0.0099,-0.0098,-0.0098,-0.0103,0,-0.0797,-0.0754,-0.0722,-0.0688,-0.068,-0.0648,-0.0601,-0.0559,-0.0512,-0.0453,-0.0405,-0.0332,-0.0314,-0.0285,-0.025,-0.0159,-0.0156,-0.0169,-0.006,-0.0059,-0.0136,-0.0129,-0.0127,-0.0134,-0.0101,-0.01,-0.01,0,-0.0811,-0.078,-0.0758,-0.0724,-0.0717,-0.0678,-0.066,-0.061,-0.0539,-0.05,-0.0456,-0.0394,-0.0343,-0.0309,-0.0218,-0.0221,-0.0185,-0.0127,-0.0125,-0.0136,-0.0096,-0.0138,-0.0131,-0.0095,-0.0096,-0.0097,-0.0097,0,-0.0906,-0.0833,-0.0835,-0.0815,-0.0741,-0.0736,-0.0699,-0.064,-0.0605,-0.0539,-0.0489,-0.0432,-0.0363,-0.0306,-0.0219,-0.0204,-0.0111,-0.0067,-0.0094,-0.0098,-0.0064,-0.0066,-0.0049,-0.0039,-0.0039,-0.0039,-0.0039,0,-0.0975,-0.097,-0.0872,-0.0877,-0.0856,-0.0793,-0.0775,-0.0731,-0.0654,-0.0593,-0.0532,-0.0463,-0.0347,-0.0274,-0.0228,-0.0167,-0.0128,-0.0124,-0.0098,-0.0094,-0.0099,-0.0038,0.0009,-0.0039,-0.0039,-0.0039,-0.0039,0,-0.1087,-0.1039,-0.1015,-0.0933,-0.0911,-0.0891,-0.0803,-0.0766,-0.0704,-0.0616,-0.0588,-0.0463,-0.0364,-0.0294,-0.0176,-0.0165,-0.0081,-0.0113,-0.0152,-0.0132,-0.0128,-0.0084,-0.0027,0.0017,-0.0139,-0.014,-0.0141,0,-0.114,-0.1147,-0.1058,-0.1022,-0.0983,-0.0933,-0.0889,-0.0811,-0.0747,-0.0606,-0.0549,-0.0442,-0.0349,-0.0242,-0.0199,-0.0168,-0.0104,-0.0169,-0.0149,-0.0153,-0.0083,-0.0046,-0.0009,-0.0142,-0.0143,-0.0144,-0.0144,0,-0.12,-0.1171,-0.112,-0.1046,-0.0994,-0.094,-0.0862,-0.0825,-0.0704,-0.0625,-0.0493,-0.0417,-0.0316,-0.0256,-0.0238,-0.0209,-0.0121,-0.0184,-0.0142,-0.0065,-0.0063,-0.0,-0.0152,-0.015,-0.0149,-0.0149,-0.0149,-0.0148,-0.1198,-0.1157,-0.1069,-0.0994,-0.0954,-0.0892,-0.083,-0.0756,-0.0661,-0.0508,-0.0467,-0.0365,-0.0313,-0.0268,-0.0244,-0.0209,-0.0155,-0.0178,-0.0124,-0.0088,-0.0047,-0.026,-0.0252,-0.0252,-0.0252,-0.0252,-0.0252,0,-0.1087,-0.1038,-0.1,-0.0884,-0.0819,-0.0822,-0.0744,-0.0674,-0.0551,-0.0505,-0.0407,-0.036,-0.0307,-0.0266,-0.0218,-0.0161,-0.0104,-0.011,-0.0031,0.0008,-0.0143,-0.0146,-0.017,-0.017,-0.017,-0.017,-0.017,-0.017,-0.0998,-0.0893,-0.0866,-0.0723,-0.0678,-0.0557,-0.0504,-0.0485,-0.0456,-0.0391,-0.0368,-0.0356,-0.026,-0.0154,-0.0072,-0.0052,0.0055,0.0053,0.0114,0.0025,0.0024,0.0022,0.0028,0.0041,0.0041,0.0258,0.0261,0.0262]}],[{"header":{"parameterUnit":"m.s-1","parameterCategory":2,"la1":30.2991,"la2":30.254,"lo1":-89.0895,"lo2":-89.0444,"dy":0.0017,"dx":0.0017,"nx":28,"ny":28,"refTime":"2026-02-06T09:00:00:Z","depth":"2","parameterNumber":2,"parameterNumberName":"U-component_of_CURRENTS"},"data":[0,0,0,0,0,0,0,0,0,0,0,0,0,0,0,0,0,0,0,0,0,0,0,0,0,0,0,0,0,0,0,0,0,0,0,0,0,0,0,0,0,0,0,0,0,0,0,0,0,0,0,0,0,0,0,0,0,0,-0.1719,-0.172,0,-0.1796,-0.1796,-0.1797,-0.1755,-0.1753,-0.1751,-0.1749,-0.1891,-0.1896,-0.1902,0,0,0,0,0,0,0,0,0,0,0,0,0,-0.1567,-0.157,-0.1719,-0.172,-0.1721,-0.1795,-0.1796,-0.1797,-0.1755,-0.1753,-0.1751,-0.1748,-0.1889,-0.1895,-0.1902,0,0,0,0,0,0,0,0,0,0,0,0,0,-0.1635,-0.1571,-0.1719,-0.1711,-0.1712,-0.1795,-0.1796,-0.1797,-0.1756,-0.1753,-0.175,-0.1747,-0.1887,-0.1895,-0.1903,-0.2009,0,0,-0.1928,-0.1932,0,0,0,0,0,0,0,0,-0.1631,-0.164,-0.1711,-0.1712,-0.1713,-0.1765,-0.1795,-0.1872,-0.1756,-0.1736,-0.1749,-0.1746,-0.1859,-0.1869,-0.1885,-0.2016,-0.2022,-0.1929,-0.1934,-0.1937,-0.194,0,0,0,0,0,0,0,-0.1626,-0.1637,-0.1746,-0.1713,-0.1714,-0.1715,-0.1721,-0.1809,-0.1811,-0.1737,-0.1735,-0.1749,-0.1859,-0.1877,-0.1888,-0.2024,-0.1929,-0.1936,-0.1941,-0.1944,-0.2185,-0.2187,0,0,0,0,0,0,-0.1625,-0.1633,-0.1744,-0.1749,-0.1667,-0.172,-0.1727,-0.1749,-0.1808,-0.1815,-0.1752,-0.1747,-0.1864,-0.1878,-0.1893,-0.1988,-0.1937,-0.1945,-0.195,-0.2184,-0.2185,-0.2187,0,0,0,0,0,0,-0.1621,-0.1634,-0.1741,-0.1694,-0.1708,-0.1726,-0.1751,-0.1752,-0.1775,-0.1819,-0.1826,-0.1774,-0.1862,-0.1881,-0.1972,-0.1994,-0.1949,-0.1956,-0.2182,-0.2184,-0.2186,-0.2201,0,0,0,0,0,0,-0.1617,-0.1633,-0.1649,-0.1694,-0.171,-0.1805,-0.1754,-0.1755,-0.1789,-0.1784,-0.1842,-0.1851,-0.1862,-0.196,-0.1981,-0.2005,-0.1963,-0.218,-0.2183,-0.2186,-0.2199,-0.2204,-0.2208,0,0,0,0,0,-0.1611,-0.1663,-0.1649,-0.1663,-0.1732,-0.1808,-0.1817,-0.1817,-0.1793,-0.1823,-0.1849,-0.1849,-0.199,-0.197,-0.1993,-0.202,-0.2179,-0.2182,-0.2185,-0.2197,-0.2203,-0.2208,0,0,0,0,0,0,-0.1621,-0.1665,-0.165,-0.1715,-0.1757,-0.1802,-0.1841,-0.1836,-0.1881,-0.1886,-0.1896,-0.191,-0.1996,-0.2016,-0.1992,-0.2094,-0.2076,-0.2084,-0.2076,-0.2082,-0.2087,-0.2042,-0.1969,0,0,0,0,0,-0.1627,-0.168,-0.1709,-0.1773,-0.1789,-0.1815,-0.1844,-0.1857,-0.1902,-0.1917,-0.1935,-0.1973,-0.2032,-0.2061,-0.2121,-0.22,-0.215,-0.2223,-0.2228,-0.2231,-0.221,-0.2161,-0.2158,-0.2198,-0.2198,-0.2198,0,0,-0.166,-0.1689,-0.1722,-0.1778,-0.181,-0.1828,-0.1827,-0.1903,-0.1905,-0.1936,-0.1953,-0.2014,-0.2063,-0.2132,-0.2169,-0.2147,-0.2193,-0.2235,-0.2238,-0.2215,-0.2164,-0.2159,-0.2155,-0.22,-0.22,-0.2199,0,0,-0.1706,-0.1766,-0.1778,-0.1813,-0.1865,-0.1894,-0.1914,-0.1954,-0.1956,-0.2011,-0.202,-0.2074,-0.2161,-0.2173,-0.2198,-0.227,-0.2232,-0.2308,-0.2286,-0.2239,-0.2234,-0.2229,-0.2144,-0.2131,-0.2293,-0.2293,-0.2293,0,-0.173,-0.174,-0.1804,-0.1806,-0.1828,-0.1911,-0.1909,-0.1951,-0.2007,-0.2026,-0.2017,-0.2114,-0.2159,-0.2216,-0.2232,-0.2275,-0.2237,-0.2261,-0.224,-0.2234,-0.2229,-0.2143,-0.2129,-0.2294,-0.2294,-0.2294,-0.2294,0,-0.1728,-0.1751,-0.1786,-0.1795,-0.1835,-0.1898,-0.1933,-0.1998,-0.2021,-0.2031,-0.2098,-0.2142,-0.2185,-0.2218,-0.2252,-0.226,-0.2242,-0.2261,-0.2215,-0.2225,-0.2135,-0.2119,-0.2296,-0.2296,-0.2295,-0.2295,0,0,-0.1738,-0.1769,-0.1761,-0.1752,-0.1838,-0.1867,-0.1938,-0.1996,-0.2041,-0.2072,-0.2075,-0.216,-0.2184,-0.2212,-0.2256,-0.2217,-0.215,-0.2228,-0.2225,-0.2122,-0.2022,-0.1921,-0.1894,-0.2176,-0.2174,-0.2172,-0.1967,0,-0.1702,-0.1667,-0.1699,-0.1707,-0.1713,-0.1826,-0.188,-0.1962,-0.2035,-0.2079,-0.2113,-0.2151,-0.2179,-0.2216,-0.2184,-0.2183,-0.2114,-0.2201,-0.2046,-0.204,-0.1932,-0.1875,-0.1783,-0.1586,-0.1951,-0.1949,-0.1947,0,-0.1631,-0.1638,-0.1598,-0.1663,-0.1672,-0.1713,-0.1843,-0.1893,-0.2025,-0.2085,-0.2137,-0.2161,-0.2148,-0.2156,-0.2066,-0.2129,-0.2068,-0.203,-0.2022,-0.1906,-0.191,-0.1642,-0.1544,-0.1921,-0.1923,-0.1925,-0.1926,0,-0.1542,-0.1554,-0.1515,-0.1535,-0.1632,-0.168,-0.1757,-0.1909,-0.1968,-0.2083,-0.2118,-0.2129,-0.2102,-0.2046,-0.197,-0.2024,-0.1829,-0.1886,-0.1714,-0.1705,-0.158,-0.1563,-0.1772,-0.1772,-0.1772,-0.1773,-0.1774,0,-0.1471,-0.1448,-0.1487,-0.1486,-0.1529,-0.1609,-0.1686,-0.1824,-0.196,-0.2004,-0.209,-0.2084,-0.2073,-0.1974,-0.1927,-0.1743,-0.1775,-0.1669,-0.1637,-0.1583,-0.157,-0.1839,-0.1849,-0.1765,-0.1767,-0.1768,-0.177,0,-0.136,-0.1372,-0.1372,-0.1455,-0.1492,-0.1524,-0.1662,-0.1724,-0.1876,-0.1935,-0.1952,-0.201,-0.1881,-0.1817,-0.1694,-0.1644,-0.1516,-0.1439,-0.1355,-0.1316,-0.1434,-0.1448,-0.1224,-0.1219,-0.1214,-0.1211,-0.1207,0,-0.1282,-0.1276,-0.1329,-0.1359,-0.1406,-0.1471,-0.1537,-0.1699,-0.1769,-0.1862,-0.1866,-0.1779,-0.1669,-0.144,-0.1359,-0.1191,-0.1309,-0.1035,-0.1119,-0.1381,-0.1373,-0.1395,-0.1415,-0.0951,-0.0946,-0.0942,-0.0938,0,-0.1213,-0.1235,-0.1244,-0.1303,-0.1356,-0.1387,-0.1494,-0.1507,-0.1651,-0.1652,-0.1606,-0.1499,-0.1332,-0.1121,-0.0962,-0.0885,-0.1069,-0.0942,-0.1204,-0.1119,-0.1111,-0.1109,-0.1139,-0.0901,-0.0905,-0.0908,-0.091,-0.0911,-0.1184,-0.1186,-0.1221,-0.127,-0.1313,-0.1317,-0.1295,-0.1326,-0.1312,-0.1287,-0.1294,-0.112,-0.1086,-0.077,-0.0663,-0.0633,-0.0729,-0.0731,-0.0749,-0.077,-0.079,-0.0776,-0.0504,-0.0505,-0.0507,-0.0508,-0.0509,0,-0.1174,-0.1193,-0.1205,-0.1252,-0.1246,-0.1299,-0.128,-0.1174,-0.1029,-0.1017,-0.0911,-0.0707,-0.0539,-0.0537,-0.0416,-0.0363,-0.0418,-0.0358,-0.0459,-0.0494,-0.0525,-0.0541,-0.0184,-0.0183,-0.0182,-0.0182,0,0,-0.1189,-0.1185,-0.1178,-0.1184,-0.1209,-0.1159,-0.1096,-0.087,-0.0795,-0.0559,-0.051,-0.0524,-0.0522,-0.0373,-0.031,-0.0239,-0.0378,-0.0214,-0.0472,-0.0628,-0.066,-0.0727,-0.0785,0,0,0,0,0]},{"header":{"parameterUnit":"m.s-1","parameterCategory":2,"la1":30.2991,"la2":30.254,"lo1":-89.0895,"lo2":-89.0444,"dy":0.0017,"dx":0.0017,"nx":28,"ny":28,"refTime":"2026-02-06T09:00:00:Z","depth":"2","parameterNumber":3,"parameterNumberName":"V-component_of_CURRENTS"},"data":[0,0,0,0,0,0,0,0,0,0,0,0,0,0,0,0,0,0,0,0,0,0,0,0,0,0,0,0,0,0,0,0,0,0,0,0,0,0,0,0,0,0,0,0,0,0,0,0,0,0,0,0,0,0,0,0,0,0,-0.0596,-0.0596,0,-0.0593,-0.0593,-0.0593,-0.0542,-0.0541,-0.054,-0.0539,-0.0385,-0.0382,-0.0379,0,0,0,0,0,0,0,0,0,0,0,0,0,-0.054,-0.0541,-0.0596,-0.0596,-0.0596,-0.0593,-0.0593,-0.0593,-0.0542,-0.0541,-0.054,-0.0538,-0.0386,-0.0383,-0.0379,0,0,0,0,0,0,0,0,0,0,0,0,0,-0.0551,-0.0542,-0.0596,-0.0572,-0.057,-0.0593,-0.0593,-0.0593,-0.0542,-0.0541,-0.0539,-0.0538,-0.0387,-0.0383,-0.0378,-0.0382,0,0,-0.0364,-0.0362,0,0,0,0,0,0,0,0,-0.0551,-0.0553,-0.0576,-0.0574,-0.0572,-0.0568,-0.0517,-0.0516,-0.0543,-0.0551,-0.0539,-0.0537,-0.0435,-0.0427,-0.0428,-0.0375,-0.0369,-0.0364,-0.0361,-0.0359,-0.0358,0,0,0,0,0,0,0,-0.055,-0.0553,-0.0592,-0.0576,-0.0574,-0.0556,-0.0556,-0.0517,-0.0497,-0.055,-0.0547,-0.0551,-0.0432,-0.0433,-0.0424,-0.0366,-0.0364,-0.036,-0.0357,-0.0355,-0.0213,-0.0212,0,0,0,0,0,0,-0.0558,-0.0553,-0.0593,-0.0593,-0.056,-0.0559,-0.0558,-0.0569,-0.0501,-0.0491,-0.0552,-0.0548,-0.0442,-0.043,-0.0418,-0.033,-0.0359,-0.0355,-0.0352,-0.0214,-0.0212,-0.0211,0,0,0,0,0,0,-0.0557,-0.0562,-0.0593,-0.0574,-0.0577,-0.0562,-0.0574,-0.057,-0.0566,-0.0505,-0.0491,-0.0552,-0.044,-0.0425,-0.0381,-0.0326,-0.0353,-0.0348,-0.0215,-0.0213,-0.0212,-0.0209,0,0,0,0,0,0,-0.0556,-0.0562,-0.0571,-0.0575,-0.0578,-0.0613,-0.0576,-0.0571,-0.0572,-0.0567,-0.05,-0.0485,-0.0438,-0.0389,-0.0377,-0.032,-0.0345,-0.0216,-0.0214,-0.0212,-0.0211,-0.0208,-0.0205,0,0,0,0,0,-0.0554,-0.0586,-0.0572,-0.0576,-0.0592,-0.0615,-0.0615,-0.0597,-0.0574,-0.0584,-0.0531,-0.0487,-0.0366,-0.0386,-0.0371,-0.0312,-0.0217,-0.0215,-0.0212,-0.0212,-0.0208,-0.0205,0,0,0,0,0,0,-0.057,-0.0584,-0.0568,-0.0602,-0.0607,-0.0607,-0.0623,-0.0604,-0.0575,-0.0563,-0.0494,-0.0476,-0.0402,-0.0377,-0.0399,-0.0266,-0.0276,-0.0271,-0.028,-0.0276,-0.0274,-0.0306,-0.0341,0,0,0,0,0,-0.0578,-0.0603,-0.0605,-0.0632,-0.064,-0.0628,-0.0634,-0.0622,-0.06,-0.0587,-0.0541,-0.0473,-0.0385,-0.0351,-0.0291,-0.0244,-0.0239,-0.0191,-0.0188,-0.0186,-0.0203,-0.0132,-0.0125,-0.0204,-0.0204,-0.0204,0,0,-0.0595,-0.0604,-0.0619,-0.0637,-0.064,-0.066,-0.0628,-0.0648,-0.0645,-0.0573,-0.0555,-0.0467,-0.0371,-0.0297,-0.0261,-0.0269,-0.017,-0.0183,-0.0182,-0.0201,-0.0129,-0.0121,-0.0115,-0.0202,-0.0202,-0.0203,0,0,-0.0642,-0.0648,-0.0679,-0.0686,-0.0696,-0.0692,-0.0699,-0.0698,-0.0678,-0.0659,-0.0565,-0.047,-0.0394,-0.0294,-0.0231,-0.019,-0.0155,-0.0146,-0.0159,-0.0089,-0.0082,-0.0076,-0.0105,-0.0101,-0.0148,-0.0148,-0.0148,0,-0.0658,-0.0683,-0.0692,-0.0717,-0.072,-0.0709,-0.0728,-0.0722,-0.0701,-0.066,-0.0659,-0.0474,-0.0391,-0.0244,-0.0209,-0.0181,-0.0169,-0.0175,-0.0086,-0.008,-0.0073,-0.0103,-0.0099,-0.0148,-0.0148,-0.0148,-0.0148,0,-0.0721,-0.073,-0.0754,-0.0773,-0.0787,-0.0805,-0.0797,-0.079,-0.0761,-0.072,-0.0602,-0.05,-0.0371,-0.0312,-0.0243,-0.0117,-0.0136,-0.0087,-0.0098,-0.0065,-0.01,-0.0095,-0.0147,-0.0148,-0.0148,-0.0148,0,0,-0.0768,-0.0789,-0.0792,-0.079,-0.0806,-0.0825,-0.0824,-0.0789,-0.0747,-0.0712,-0.063,-0.0472,-0.0385,-0.031,-0.0191,-0.0134,-0.0072,-0.0089,-0.0085,-0.0127,0.0018,-0.0004,-0.0002,0.001,0.0012,0.0014,-0.0041,0,-0.0796,-0.0832,-0.084,-0.0866,-0.0874,-0.086,-0.0862,-0.0828,-0.0764,-0.069,-0.0567,-0.044,-0.039,-0.0281,-0.0217,-0.0077,-0.0053,-0.0067,-0.0,-0.0001,-0.0028,0.0007,0.0008,-0.0039,-0.0037,-0.0036,-0.0036,0,-0.0824,-0.0845,-0.0867,-0.0871,-0.0879,-0.0898,-0.0852,-0.0853,-0.0744,-0.0668,-0.0537,-0.0428,-0.0286,-0.0257,-0.0112,-0.0116,-0.0057,-0.0006,-0.0005,-0.0024,-0.0012,-0.0059,-0.0031,-0.0029,-0.0029,-0.003,-0.003,0,-0.0812,-0.0845,-0.0854,-0.0862,-0.0888,-0.0884,-0.09,-0.0829,-0.0789,-0.0626,-0.0551,-0.0391,-0.0293,-0.0199,-0.0094,-0.0073,0.0008,0.0056,0.005,0.0045,0.0056,0.005,0.0121,0.0121,0.0121,0.0121,0.0122,0,-0.0804,-0.0813,-0.0848,-0.086,-0.0878,-0.0898,-0.0883,-0.0834,-0.0745,-0.0687,-0.053,-0.0449,-0.0264,-0.0189,-0.011,-0.0041,-0.0008,0.0034,0.0051,0.0051,0.0045,0.0075,0.0071,0.0119,0.012,0.012,0.0121,0,-0.0773,-0.0789,-0.0813,-0.0855,-0.0866,-0.0886,-0.0904,-0.0882,-0.0788,-0.07,-0.064,-0.047,-0.0373,-0.0263,-0.0116,-0.0064,0.0014,0.0022,-0.0045,-0.0032,-0.0009,-0.0012,0.0018,0.0017,0.0016,0.0016,0.0015,0,-0.0755,-0.0761,-0.0816,-0.0843,-0.0863,-0.0901,-0.0926,-0.0882,-0.0844,-0.0739,-0.0693,-0.0564,-0.048,-0.0329,-0.0185,-0.009,-0.005,-0.0031,0.0032,-0.0023,-0.0009,-0.0012,-0.0014,0.0015,0.0015,0.0015,0.0014,0,-0.0746,-0.0762,-0.0803,-0.0849,-0.0885,-0.0921,-0.0944,-0.0917,-0.0878,-0.0807,-0.0732,-0.067,-0.0524,-0.0382,-0.0238,-0.0166,-0.0035,-0.0036,-0.0031,0.0048,-0.0025,-0.0012,-0.0014,0.0011,0.0012,0.0012,0.0012,0.0012,-0.0752,-0.0778,-0.0832,-0.0876,-0.0906,-0.0926,-0.0942,-0.0943,-0.091,-0.0799,-0.079,-0.0673,-0.0562,-0.0324,-0.0218,-0.0071,-0.0092,-0.0019,-0.0017,-0.0015,0.0002,-0.0066,-0.0042,-0.0042,-0.0042,-0.0042,-0.0042,0,-0.0789,-0.0821,-0.0858,-0.0908,-0.0932,-0.0926,-0.0943,-0.0934,-0.0901,-0.0803,-0.0736,-0.0588,-0.0458,-0.0313,-0.0115,-0.0031,0.0011,0.0026,0.0053,0.0053,0.0054,0.0077,0.0052,0.0053,0.0054,0.0054,0,0,-0.0818,-0.0873,-0.0891,-0.0929,-0.0929,-0.093,-0.0924,-0.0884,-0.0814,-0.0716,-0.061,-0.0542,-0.0427,-0.0258,-0.0157,-0.0037,0.0012,0.0003,-0.0089,-0.0069,-0.0068,-0.0003,0.0028,0,0,0,0,0]}],[{"header":{"parameterUnit":"m.s-1","parameterCategory":2,"la1":30.2991,"la2":30.254,"lo1":-89.0895,"lo2":-89.0444,"dy":0.0017,"dx":0.0017,"nx":28,"ny":28,"refTime":"2026-02-06T09:00:00:Z","depth":"4","parameterNumber":2,"parameterNumberName":"U-component_of_CURRENTS"},"data":[0,0,0,0,0,0,0,0,0,0,0,0,0,0,0,0,0,0,0,0,0,0,0,0,0,0,0,0,0,0,0,0,0,0,0,0,0,0,0,0,0,0,0,0,0,0,0,0,0,0,0,0,0,0,0,0,0,0,-0.1124,-0.1124,0,-0.1145,-0.1145,-0.1145,-0.1169,-0.117,-0.117,-0.1171,-0.1182,-0.1182,-0.1182,0,0,0,0,0,0,0,0,0,0,0,0,0,-0.1054,-0.1055,-0.1124,-0.1124,-0.1125,-0.1145,-0.1145,-0.1145,-0.1169,-0.117,-0.117,-0.1171,-0.1182,-0.1182,-0.1182,0,0,0,0,0,0,0,0,0,0,0,0,0,-0.1079,-0.1056,-0.1124,-0.1141,-0.1143,-0.1145,-0.1145,-0.1145,-0.1169,-0.117,-0.1171,-0.1171,-0.1182,-0.1182,-0.1181,-0.1162,0,0,-0.118,-0.118,0,0,0,0,0,0,0,0,-0.1077,-0.1081,-0.1138,-0.114,-0.1142,-0.1157,-0.1125,-0.1151,-0.1169,-0.1157,-0.1171,-0.1172,-0.1174,-0.1174,-0.1173,-0.1163,-0.1163,-0.118,-0.118,-0.118,-0.118,0,0,0,0,0,0,0,-0.1076,-0.108,-0.113,-0.1138,-0.1141,-0.113,-0.1135,-0.1129,-0.1158,-0.1158,-0.116,-0.1166,-0.1174,-0.1173,-0.1174,-0.1164,-0.118,-0.118,-0.118,-0.118,-0.1162,-0.1162,0,0,0,0,0,0,-0.1079,-0.1079,-0.1129,-0.1131,-0.1113,-0.1131,-0.1136,-0.115,-0.1159,-0.1162,-0.1165,-0.1167,-0.1174,-0.1174,-0.1174,-0.1172,-0.118,-0.118,-0.118,-0.1162,-0.1162,-0.1162,0,0,0,0,0,0,-0.1078,-0.1084,-0.1128,-0.1106,-0.1112,-0.1132,-0.1146,-0.115,-0.117,-0.1165,-0.1167,-0.1185,-0.1174,-0.1175,-0.1168,-0.1172,-0.118,-0.1179,-0.1163,-0.1162,-0.1162,-0.1155,0,0,0,0,0,0,-0.1076,-0.1083,-0.11,-0.1107,-0.1113,-0.1124,-0.1146,-0.115,-0.1172,-0.1175,-0.1182,-0.1183,-0.1175,-0.1168,-0.1168,-0.1172,-0.1179,-0.1163,-0.1162,-0.1162,-0.1156,-0.1154,-0.1153,0,0,0,0,0,-0.1073,-0.1087,-0.11,-0.1107,-0.1133,-0.1124,-0.1125,-0.114,-0.1172,-0.1166,-0.1174,-0.1184,-0.1165,-0.1167,-0.1167,-0.1171,-0.1163,-0.1163,-0.1162,-0.1156,-0.1155,-0.1153,0,0,0,0,0,0,-0.1069,-0.1091,-0.1106,-0.1128,-0.1125,-0.1128,-0.1134,-0.1152,-0.1157,-0.1167,-0.1174,-0.1173,-0.117,-0.117,-0.1173,-0.1164,-0.1169,-0.1168,-0.1164,-0.1163,-0.1162,-0.1166,-0.1179,0,0,0,0,0,-0.1075,-0.1091,-0.11,-0.1117,-0.1119,-0.1133,-0.1139,-0.1145,-0.1149,-0.1154,-0.1156,-0.1161,-0.1163,-0.1164,-0.1155,-0.1149,-0.1155,-0.1153,-0.1152,-0.1151,-0.1153,-0.1159,-0.1159,-0.116,-0.116,-0.116,0,0,-0.1081,-0.1094,-0.1105,-0.1117,-0.1123,-0.1108,-0.1138,-0.1141,-0.1138,-0.1153,-0.1149,-0.1155,-0.116,-0.1148,-0.1148,-0.1152,-0.1153,-0.115,-0.1149,-0.1152,-0.1158,-0.1158,-0.1158,-0.1159,-0.1159,-0.116,0,0,-0.1064,-0.1108,-0.1097,-0.1096,-0.11,-0.1105,-0.1111,-0.1113,-0.1125,-0.1117,-0.1133,-0.1142,-0.1135,-0.1138,-0.1143,-0.1134,-0.1146,-0.1136,-0.1135,-0.1141,-0.1141,-0.1141,-0.1146,-0.1147,-0.1137,-0.1137,-0.1137,0,-0.107,-0.1065,-0.109,-0.107,-0.1078,-0.1105,-0.1088,-0.1095,-0.1093,-0.11,-0.1112,-0.1125,-0.1131,-0.1138,-0.1136,-0.1133,-0.1137,-0.1141,-0.114,-0.114,-0.1141,-0.1146,-0.1147,-0.1137,-0.1137,-0.1137,-0.1137,0,-0.1017,-0.1033,-0.1029,-0.1021,-0.1023,-0.102,-0.1031,-0.1032,-0.1061,-0.1068,-0.1084,-0.1096,-0.1106,-0.1114,-0.1125,-0.1134,-0.1136,-0.1137,-0.1145,-0.114,-0.1146,-0.1147,-0.1136,-0.1136,-0.1136,-0.1136,0,0,-0.099,-0.0994,-0.0993,-0.0999,-0.1007,-0.1003,-0.1001,-0.1005,-0.1015,-0.1027,-0.104,-0.1061,-0.1086,-0.1094,-0.1115,-0.1128,-0.1138,-0.1136,-0.1137,-0.1144,-0.115,-0.1043,-0.1035,-0.1139,-0.1139,-0.114,-0.1152,0,-0.0947,-0.0916,-0.0927,-0.0918,-0.0915,-0.0947,-0.0945,-0.0955,-0.0976,-0.0985,-0.1029,-0.1043,-0.1075,-0.109,-0.1108,-0.1128,-0.1141,-0.1135,-0.1151,-0.1152,-0.1059,-0.1032,-0.114,-0.1153,-0.1153,-0.1154,-0.1154,0,-0.0886,-0.0884,-0.0862,-0.0893,-0.0894,-0.089,-0.0914,-0.0913,-0.0935,-0.0952,-0.0981,-0.1011,-0.1045,-0.107,-0.1112,-0.1106,-0.113,-0.1148,-0.1149,-0.1052,-0.1046,-0.1159,-0.1156,-0.1156,-0.1156,-0.1155,-0.1155,0,-0.0854,-0.0849,-0.0843,-0.0849,-0.0866,-0.0873,-0.0886,-0.0903,-0.0908,-0.0935,-0.0936,-0.0985,-0.1003,-0.1047,-0.109,-0.1102,-0.1125,-0.1143,-0.1072,-0.1066,-0.1166,-0.1165,-0.1169,-0.1169,-0.1169,-0.1169,-0.1169,0,-0.0815,-0.0814,-0.0832,-0.0832,-0.0832,-0.0855,-0.0856,-0.0872,-0.0886,-0.0874,-0.0925,-0.0917,-0.0997,-0.102,-0.1072,-0.106,-0.111,-0.1061,-0.1054,-0.1162,-0.1161,-0.1167,-0.1166,-0.117,-0.1169,-0.1169,-0.1169,0,-0.0776,-0.0788,-0.0791,-0.0812,-0.082,-0.0822,-0.0838,-0.0829,-0.0849,-0.0833,-0.0841,-0.0866,-0.0881,-0.0951,-0.1006,-0.1009,-0.1031,-0.102,-0.1123,-0.1123,-0.0979,-0.0979,-0.0938,-0.0934,-0.093,-0.0928,-0.0925,0,-0.0743,-0.0741,-0.0773,-0.0772,-0.0784,-0.0789,-0.0784,-0.081,-0.0794,-0.0786,-0.0767,-0.078,-0.0797,-0.0786,-0.087,-0.0936,-0.0944,-0.095,-0.0972,-0.0954,-0.0952,-0.0957,-0.096,-0.092,-0.0919,-0.0919,-0.0918,0,-0.0687,-0.0713,-0.0717,-0.0722,-0.0725,-0.0714,-0.0712,-0.0691,-0.0698,-0.0726,-0.0661,-0.0663,-0.0662,-0.0709,-0.0752,-0.081,-0.0941,-0.0916,-0.0924,-0.0946,-0.0933,-0.0935,-0.0942,-0.0906,-0.0908,-0.0909,-0.091,0,-0.0646,-0.0641,-0.0658,-0.0651,-0.0655,-0.0622,-0.0636,-0.0599,-0.0588,-0.0587,-0.0559,-0.0584,-0.062,-0.064,-0.0687,-0.0718,-0.0732,-0.0736,-0.0754,-0.0768,-0.071,-0.0669,-0.054,0,0,0,0,0,-0.0588,-0.0576,-0.0576,-0.0561,-0.0564,-0.0562,-0.0569,-0.058,-0.059,-0.052,-0.0535,-0.053,-0.0542,-0.0566,-0.0574,-0.065,-0.076,-0.0657,-0.0779,-0.0844,-0.0857,-0.0807,0,0,0,0,0,0,-0.0548,-0.055,-0.0552,-0.0481,-0.0453,-0.0438,-0.0441,-0.0455,-0.0422,-0.0444,-0.046,-0.0484,-0.0526,-0.0524,-0.0553,-0.0568,-0.0634,-0.069,-0.0689,-0.0836,-0.0848,-0.0859,-0.0812,0,0,0,0,0]},{"header":{"parameterUnit":"m.s-1","parameterCategory":2,"la1":30.2991,"la2":30.254,"lo1":-89.0895,"lo2":-89.0444,"dy":0.0017,"dx":0.0017,"nx":28,"ny":28,"refTime":"2026-02-06T09:00:00:Z","depth":"4","parameterNumber":3,"parameterNumberName":"V-component_of_CURRENTS"},"data":[0,0,0,0,0,0,0,0,0,0,0,0,0,0,0,0,0,0,0,0,0,0,0,0,0,0,0,0,0,0,0,0,0,0,0,0,0,0,0,0,0,0,0,0,0,0,0,0,0,0,0,0,0,0,0,0,0,0,-0.044,-0.044,0,-0.0466,-0.0466,-0.0466,-0.0433,-0.0432,-0.043,-0.0429,-0.0405,-0.0406,-0.0406,0,0,0,0,0,0,0,0,0,0,0,0,0,-0.0373,-0.0374,-0.044,-0.044,-0.0441,-0.0466,-0.0466,-0.0466,-0.0433,-0.0432,-0.043,-0.0429,-0.0405,-0.0406,-0.0406,0,0,0,0,0,0,0,0,0,0,0,0,0,-0.04,-0.0375,-0.044,-0.0427,-0.0426,-0.0466,-0.0466,-0.0466,-0.0433,-0.0431,-0.043,-0.0428,-0.0405,-0.0406,-0.0406,-0.0446,0,0,-0.0409,-0.0409,0,0,0,0,0,0,0,0,-0.0399,-0.0403,-0.0429,-0.0428,-0.0427,-0.0445,-0.0434,-0.0457,-0.0434,-0.043,-0.0429,-0.0427,-0.0416,-0.0415,-0.0424,-0.0445,-0.0444,-0.0409,-0.0409,-0.0409,-0.041,0,0,0,0,0,0,0,-0.0397,-0.0402,-0.045,-0.0429,-0.0429,-0.0424,-0.0426,-0.0438,-0.0431,-0.043,-0.0428,-0.0432,-0.0414,-0.0424,-0.0423,-0.0444,-0.0409,-0.0409,-0.041,-0.041,-0.0508,-0.051,0,0,0,0,0,0,-0.0396,-0.04,-0.0449,-0.0451,-0.0409,-0.0427,-0.0429,-0.0441,-0.0432,-0.043,-0.0434,-0.0431,-0.0423,-0.0422,-0.0422,-0.0467,-0.0409,-0.041,-0.041,-0.0506,-0.0508,-0.0511,0,0,0,0,0,0,-0.0395,-0.0401,-0.0448,-0.0425,-0.0431,-0.043,-0.0443,-0.0442,-0.0451,-0.0435,-0.0431,-0.0444,-0.0422,-0.0421,-0.0455,-0.0466,-0.041,-0.0411,-0.0503,-0.0507,-0.051,-0.0558,0,0,0,0,0,0,-0.0393,-0.0401,-0.0413,-0.0426,-0.0432,-0.0485,-0.0445,-0.0444,-0.0457,-0.0453,-0.0443,-0.0439,-0.042,-0.0454,-0.0456,-0.0466,-0.0411,-0.05,-0.0505,-0.0508,-0.0553,-0.0562,-0.057,0,0,0,0,0,-0.0391,-0.0427,-0.0414,-0.042,-0.0449,-0.0487,-0.0491,-0.0482,-0.0459,-0.048,-0.0478,-0.0439,-0.048,-0.0458,-0.0458,-0.0468,-0.0498,-0.0503,-0.0508,-0.055,-0.0561,-0.057,0,0,0,0,0,0,-0.041,-0.0427,-0.0413,-0.0452,-0.0469,-0.0481,-0.0506,-0.0493,-0.0509,-0.0506,-0.0476,-0.0475,-0.0505,-0.0495,-0.0471,-0.0513,-0.048,-0.0485,-0.0511,-0.0521,-0.0529,-0.0501,-0.0412,0,0,0,0,0,-0.0419,-0.0447,-0.0457,-0.049,-0.0502,-0.0503,-0.0517,-0.0513,-0.0526,-0.053,-0.0527,-0.0525,-0.053,-0.0531,-0.0543,-0.0573,-0.0533,-0.058,-0.0588,-0.0595,-0.0577,-0.0555,-0.0558,-0.0527,-0.0527,-0.0527,0,0,-0.0438,-0.0449,-0.0466,-0.0495,-0.0508,-0.0532,-0.0508,-0.0544,-0.0553,-0.0528,-0.0556,-0.0561,-0.0549,-0.0579,-0.059,-0.0568,-0.0585,-0.0601,-0.0607,-0.0584,-0.056,-0.0563,-0.0565,-0.053,-0.053,-0.0529,0,0,-0.0482,-0.0499,-0.0527,-0.0545,-0.0568,-0.0574,-0.0584,-0.0607,-0.0607,-0.0645,-0.062,-0.0635,-0.0658,-0.0641,-0.0634,-0.0699,-0.0635,-0.0707,-0.0716,-0.0697,-0.0698,-0.0698,-0.0648,-0.0644,-0.0704,-0.0705,-0.0705,0,-0.0498,-0.0525,-0.0545,-0.057,-0.0581,-0.059,-0.0613,-0.0629,-0.0658,-0.0659,-0.0663,-0.0685,-0.0678,-0.0677,-0.0697,-0.0711,-0.0681,-0.0674,-0.0703,-0.0703,-0.0702,-0.0651,-0.0645,-0.0707,-0.0707,-0.0707,-0.0707,0,-0.0548,-0.0567,-0.0595,-0.0617,-0.0641,-0.0674,-0.0687,-0.0714,-0.0719,-0.072,-0.0743,-0.0751,-0.075,-0.0759,-0.0742,-0.074,-0.0714,-0.0718,-0.0667,-0.0708,-0.0652,-0.0645,-0.0712,-0.0711,-0.071,-0.0709,0,0,-0.0583,-0.0617,-0.0625,-0.0625,-0.0663,-0.0687,-0.0718,-0.0736,-0.0745,-0.0777,-0.0783,-0.0795,-0.0791,-0.0783,-0.0773,-0.0753,-0.0727,-0.0733,-0.0731,-0.0662,-0.0659,-0.0626,-0.0615,-0.0738,-0.0737,-0.0737,-0.0619,0,-0.0605,-0.064,-0.0659,-0.0692,-0.0704,-0.0724,-0.0749,-0.077,-0.0788,-0.0811,-0.0803,-0.0821,-0.0801,-0.0811,-0.0787,-0.0756,-0.0712,-0.0756,-0.0647,-0.0643,-0.0592,-0.0607,-0.0735,-0.0613,-0.0612,-0.0611,-0.061,0,-0.0625,-0.0646,-0.0674,-0.0697,-0.0709,-0.0738,-0.0769,-0.0794,-0.082,-0.0834,-0.0842,-0.0848,-0.083,-0.082,-0.0742,-0.0774,-0.0707,-0.0671,-0.0666,-0.0606,-0.0597,-0.0568,-0.0596,-0.0597,-0.0598,-0.0599,-0.06,0,-0.0603,-0.0647,-0.0662,-0.0674,-0.0716,-0.0736,-0.0766,-0.08,-0.0818,-0.0851,-0.087,-0.0856,-0.0861,-0.0793,-0.0722,-0.0733,-0.0627,-0.0636,-0.0527,-0.0523,-0.0562,-0.0563,-0.055,-0.0551,-0.0551,-0.0551,-0.0552,0,-0.0591,-0.0606,-0.0656,-0.0666,-0.07,-0.0732,-0.0771,-0.0798,-0.0837,-0.0855,-0.0879,-0.0887,-0.0857,-0.0806,-0.0722,-0.0601,-0.062,-0.0511,-0.0492,-0.0588,-0.0593,-0.0556,-0.0559,-0.0547,-0.0548,-0.0549,-0.0549,0,-0.0552,-0.0579,-0.0604,-0.0662,-0.0684,-0.0712,-0.078,-0.0807,-0.0843,-0.0871,-0.0884,-0.0906,-0.0849,-0.0785,-0.068,-0.0601,-0.0493,-0.0432,-0.0516,-0.0506,-0.0392,-0.0399,-0.0301,-0.0298,-0.0297,-0.0295,-0.0294,0,-0.053,-0.0536,-0.0605,-0.0633,-0.0663,-0.0714,-0.0752,-0.0803,-0.0827,-0.0868,-0.0874,-0.086,-0.0853,-0.0678,-0.0616,-0.0449,-0.042,-0.0346,-0.0382,-0.0376,-0.0367,-0.0377,-0.0386,-0.0291,-0.0291,-0.029,-0.029,0,-0.0499,-0.0528,-0.0562,-0.0619,-0.0665,-0.0713,-0.0766,-0.0776,-0.0824,-0.0856,-0.0846,-0.0798,-0.0735,-0.0654,-0.0531,-0.041,-0.04,-0.0327,-0.033,-0.0363,-0.0363,-0.0359,-0.0369,-0.0283,-0.0284,-0.0285,-0.0285,0,-0.0489,-0.0512,-0.0564,-0.0611,-0.0667,-0.0706,-0.0733,-0.0759,-0.0783,-0.0814,-0.0804,-0.0769,-0.0766,-0.0629,-0.0512,-0.0406,-0.0376,-0.0324,-0.0326,-0.0332,-0.0391,-0.0399,-0.0298,0,0,0,0,0,-0.0482,-0.0512,-0.0555,-0.0613,-0.0665,-0.07,-0.0744,-0.0765,-0.0795,-0.0773,-0.0786,-0.0723,-0.06,-0.0576,-0.0458,-0.0472,-0.0356,-0.0328,-0.0296,-0.0249,-0.0256,-0.0319,0,0,0,0,0,0,-0.0484,-0.0526,-0.055,-0.0605,-0.0643,-0.0701,-0.0729,-0.0747,-0.0731,-0.075,-0.0694,-0.0675,-0.0568,-0.0669,-0.0456,-0.043,-0.0385,-0.0286,-0.0282,-0.0245,-0.0251,-0.0257,-0.0324,0,0,0,0,0]}]]